NOAA 16 DEB, 41654

Orbit data source: Space-Track

NOAA 16 DEB, 41654 is space debris in SSO originally from a launch on Thu, 21 Sep 2000 UTC launched from the Air Force Western Test Range (AFWTR). Debris objects in space refer to the collection of defunct objects orbiting the Earth. Examples of debris include non-operational satellites, rocket bodies, and fragments generated from explosions, collisions, or faulty payload assembly.

Loading next visibility...
Identifier
41654, 2000-055NT
Orbit
SSO
Country
Flag of USUS
Related business
Manufacturer
Unknown
Mission
Spacecraft
Bus & Motor
Unknown
Mass
Unknown
Launch date (UTC)
2000-09-21 (25 years ago)
Launch vehicle
Unknown
Launch site
Air Force Western Test Range (AFWTR)
Object type
Payload
Rocket body
Debris
Shape & HBR
Unknown shape, 0.1 m
Radar Cross Section
Small (<0.1 m²)

Expand to show TLE details & history
Last TLE update: 4 days ago

TLE from 4 days ago
0 NOAA 16 DEB
1 41654U 00055NT  25296.59988781  .00004795  00000-0  19688-2 0  9998
2 41654  98.6394 345.1518 0039899 124.9462 235.5477 14.27051474491523
Epoch: 2025-10-23T14:23Z
TLE epoch observation values (Epoch: 2025-10-23T14:23:50.306Z)
Latitude
Longitude
96.93537°
Altitude
820.817 km
Speed
7.434 km/s
True Right ascension
23h 00m 36s
True Declination
0° 00' 00"
Sunlit
Object was in full shadow at epoch
Visualization orbit readout
Latitude
Unknown
Longitude
Unknown
Altitude
Unknown
Speed
Unknown
Apparent Right ascension
Unknown
Apparent Declination
Unknown
Sunlit
N/A
Visualization observer readout
Local Sidereal Time
19:04:54
Azimuth
Unknown
Elevation
Unknown
Doppler factor
Unknown
Orbital elements
Apogee altitude
827.384 km
Perigee altitude
770.114 km
Semi-major axis
7,176.886 km
Eccentricity
0.00399
Inclination
98.6394°
RAAN
345.1518°
Arg. of periapsis
124.9462°
True anomaly
235.17175°
Mean anomaly
235.5477°
Eccentric anomaly
235.35962°
Mean motion
3.56976 °/min
Orbital period
100.85 mins
BSTAR
0.0019688
Loading maneuver chart data...
Computing Atmospheric mass density...
Loading historical data...
Loading historical data...
Loading historical data...
Loading historical data...
Loading historical data...
Loading historical data...
Loading historical data...

Documentation

Showing up to 5 results
|